• In Russia
  • List of Countries
  • For 7 days
  • Water Temperature
  • Satellite Maps
  • Weather Map
  • Weather Widgets
  • user-avatar
    Login

    Hourly Weather Banbridge

    Today, 21 October, Saturday

    Time Temperature Precipitation Wind Pressure Humidity
    00:00 +10°C° 0.4 mm 7 mps 734 mmHg 91%
    01:00 +9°C° 0 mm 8 mps 733 mmHg 90%
    02:00 +9°C° 0 mm 8 mps 732 mmHg 89%
    03:00 +8°C° 0 mm 9 mps 732 mmHg 87%
    04:00 +8°C° 0.1 mm 9 mps 731 mmHg 87%
    05:00 +8°C° 0.1 mm 9 mps 730 mmHg 87%
    06:00 +8°C° 0.1 mm 9 mps 729 mmHg 87%
    07:00 +10°C° 0.1 mm 8 mps 728 mmHg 88%
    08:00 +10°C° 0.1 mm 8 mps 728 mmHg 89%
    09:00 +10°C° 0.1 mm 7 mps 727 mmHg 90%
    10:00 +12°C° 0.1 mm 5 mps 728 mmHg 90%
    11:00 +12°C° 0.1 mm 4 mps 728 mmHg 90%
    12:00 +12°C° 0.1 mm 3 mps 728 mmHg 90%
    13:00 +12°C° 0.4 mm 5 mps 729 mmHg 89%
    14:00 +11°C° 0.4 mm 7 mps 730 mmHg 88%
    15:00 +10°C° 0.4 mm 9 mps 731 mmHg 87%
    16:00 +10°C° 0.1 mm 9 mps 733 mmHg 87%
    17:00 +9°C° 0.1 mm 10 mps 734 mmHg 87%
    18:00 +8°C° 0.1 mm 10 mps 735 mmHg 86%
    19:00 +8°C° 0.3 mm 11 mps 737 mmHg 86%
    20:00 +8°C° 0.3 mm 11 mps 738 mmHg 86%
    21:00 +8°C° 0.3 mm 11 mps 739 mmHg 86%
    22:00 +8°C° 0.2 mm 11 mps 740 mmHg 84%
    23:00 +7°C° 0.2 mm 12 mps 741 mmHg 82%

    Tomorrow, 22 October, Sunday

    Time Temperature Precipitation Wind Pressure Humidity
    00:00 +7°C° 0.2 mm 12 mps 742 mmHg 81%
    01:00 +7°C° 0.1 mm 12 mps 743 mmHg 80%
    02:00 +7°C° 0.1 mm 12 mps 744 mmHg 80%
    03:00 +7°C° 0.1 mm 12 mps 745 mmHg 79%
    04:00 +7°C° 0 mm 12 mps 746 mmHg 77%
    05:00 +6°C° 0 mm 11 mps 747 mmHg 75%
    06:00 +6°C° 0 mm 11 mps 747 mmHg 73%
    07:00 +6°C° 0 mm 10 mps 748 mmHg 75%
    08:00 +7°C° 0 mm 9 mps 749 mmHg 76%
    09:00 +7°C° 0 mm 8 mps 749 mmHg 78%
    10:00 +9°C° 0.1 mm 8 mps 750 mmHg 77%
    11:00 +9°C° 0.1 mm 8 mps 750 mmHg 77%
    12:00 +10°C° 0.1 mm 8 mps 751 mmHg 76%
    13:00 +10°C° 0.1 mm 8 mps 751 mmHg 77%
    14:00 +10°C° 0.1 mm 8 mps 751 mmHg 78%
    15:00 +10°C° 0.1 mm 8 mps 751 mmHg 79%
    16:00 +9°C° 0 mm 7 mps 751 mmHg 82%
    17:00 +9°C° 0 mm 6 mps 751 mmHg 84%
    18:00 +8°C° 0 mm 5 mps 752 mmHg 87%
    19:00 +8°C° 0 mm 5 mps 752 mmHg 89%
    20:00 +8°C° 0 mm 4 mps 752 mmHg 91%
    21:00 +8°C° 0 mm 4 mps 752 mmHg 93%
    22:00 +8°C° 0.2 mm 4 mps 751 mmHg 94%
    23:00 +9°C° 0.2 mm 5 mps 751 mmHg 94%

    Day after tomorrow, 23 October, Monday

    Time Temperature Precipitation Wind Pressure Humidity
    00:00 +9°C° 0.2 mm 5 mps 750 mmHg 95%
    01:00 +9°C° 0.4 mm 5 mps 750 mmHg 95%
    02:00 +10°C° 0.4 mm 5 mps 749 mmHg 96%
    03:00 +11°C° 0.4 mm 4 mps 749 mmHg 96%
    04:00 +11°C° 0 mm 4 mps 749 mmHg 97%
    05:00 +12°C° 0 mm 3 mps 748 mmHg 97%
    06:00 +12°C° 0 mm 3 mps 748 mmHg 97%
    07:00 +12°C° 0.1 mm 3 mps 749 mmHg 97%
    08:00 +12°C° 0.1 mm 3 mps 749 mmHg 97%
    09:00 +13°C° 0.1 mm 3 mps 749 mmHg 97%
    10:00 +13°C° 0 mm 3 mps 750 mmHg 90%
    11:00 +14°C° 0 mm 4 mps 750 mmHg 84%
    12:00 +14°C° 0 mm 4 mps 751 mmHg 77%
    13:00 +14°C° 0 mm 4 mps 751 mmHg 77%
    14:00 +14°C° 0 mm 3 mps 751 mmHg 77%
    15:00 +14°C° 0 mm 3 mps 751 mmHg 77%
    16:00 +13°C° 0 mm 3 mps 751 mmHg 82%
    17:00 +12°C° 0 mm 3 mps 751 mmHg 86%
    18:00 +11°C° 0 mm 4 mps 751 mmHg 91%
    19:00 +12°C° 0.1 mm 4 mps 750 mmHg 89%
    20:00 +12°C° 0.1 mm 5 mps 750 mmHg 86%
    21:00 +13°C° 0.1 mm 6 mps 750 mmHg 84%
    22:00 +12°C° 0.3 mm 7 mps 749 mmHg 86%
    23:00 +12°C° 0.3 mm 7 mps 749 mmHg 88%

    24 October, Tuesday

    Time Temperature Precipitation Wind Pressure Humidity
    00:00 +13°C° 0.3 mm 8 mps 748 mmHg 90%
    01:00 +14°C° 1 mm 7 mps 748 mmHg 91%
    02:00 +14°C° 1 mm 6 mps 748 mmHg 93%
    03:00 +15°C° 1 mm 6 mps 748 mmHg 94%
    04:00 +14°C° 0.2 mm 5 mps 748 mmHg 94%
    05:00 +13°C° 0.2 mm 4 mps 749 mmHg 94%
    06:00 +12°C° 0.2 mm 4 mps 749 mmHg 94%
    07:00 +12°C° 0 mm 4 mps 750 mmHg 94%
    08:00 +12°C° 0 mm 4 mps 750 mmHg 94%
    09:00 +12°C° 0 mm 3 mps 751 mmHg 94%
    10:00 +12°C° 0 mm 3 mps 751 mmHg 93%
    11:00 +12°C° 0 mm 3 mps 751 mmHg 92%
    12:00 +12°C° 0 mm 3 mps 752 mmHg 91%
    13:00 +13°C° 0 mm 3 mps 752 mmHg 91%
    14:00 +13°C° 0 mm 3 mps 751 mmHg 90%
    15:00 +13°C° 0 mm 3 mps 751 mmHg 90%
    16:00 +13°C° 0 mm 3 mps 752 mmHg 92%
    17:00 +12°C° 0 mm 3 mps 752 mmHg 93%
    18:00 +12°C° 0 mm 3 mps 752 mmHg 95%
    19:00 +12°C° 0 mm 3 mps 752 mmHg 95%
    20:00 +11°C° 0 mm 3 mps 752 mmHg 96%
    21:00 +11°C° 0 mm 3 mps 753 mmHg 96%
    22:00 +11°C° 0 mm 3 mps 753 mmHg 96%
    23:00 +10°C° 0 mm 3 mps 753 mmHg 97%

    25 October, Wednesday

    Time Temperature Precipitation Wind Pressure Humidity
    00:00 +10°C° 0 mm 2 mps 753 mmHg 97%
    01:00 +10°C° 0 mm 2 mps 753 mmHg 96%
    02:00 +9°C° 0 mm 2 mps 753 mmHg 96%
    03:00 +9°C° 0 mm 2 mps 754 mmHg 95%
    04:00 +9°C° 0 mm 2 mps 754 mmHg 95%
    05:00 +8°C° 0 mm 2 mps 754 mmHg 95%
    06:00 +8°C° 0 mm 2 mps 754 mmHg 95%
    07:00 +9°C° 0 mm 2 mps 754 mmHg 93%
    08:00 +9°C° 0 mm 2 mps 755 mmHg 92%
    09:00 +10°C° 0 mm 2 mps 755 mmHg 91%
    10:00 +12°C° 0 mm 2 mps 755 mmHg 87%
    11:00 +13°C° 0 mm 2 mps 755 mmHg 82%
    12:00 +14°C° 0 mm 2 mps 756 mmHg 78%
    13:00 +14°C° 0 mm 2 mps 755 mmHg 79%
    14:00 +14°C° 0 mm 2 mps 755 mmHg 79%
    15:00 +14°C° 0 mm 2 mps 755 mmHg 79%
    16:00 +13°C° 0 mm 2 mps 755 mmHg 83%
    17:00 +12°C° 0 mm 2 mps 755 mmHg 88%
    18:00 +10°C° 0 mm 2 mps 755 mmHg 92%
    19:00 +10°C° 0.4 mm 2 mps 755 mmHg 93%
    20:00 +10°C° 0.4 mm 2 mps 755 mmHg 93%
    21:00 +11°C° 0.4 mm 3 mps 755 mmHg 94%
    22:00 +11°C° 0.5 mm 3 mps 755 mmHg 95%
    23:00 +12°C° 0.5 mm 3 mps 755 mmHg 96%

    26 October, Thursday

    Time Temperature Precipitation Wind Pressure Humidity
    00:00 +12°C° 0.5 mm 4 mps 754 mmHg 97%
    01:00 +12°C° 0.1 mm 4 mps 754 mmHg 97%
    02:00 +12°C° 0.1 mm 4 mps 754 mmHg 96%
    03:00 +12°C° 0.1 mm 4 mps 754 mmHg 96%
    04:00 +12°C° 0 mm 4 mps 754 mmHg 96%
    05:00 +12°C° 0 mm 4 mps 753 mmHg 95%
    06:00 +11°C° 0 mm 4 mps 753 mmHg 95%
    07:00 +12°C° 0 mm 4 mps 753 mmHg 95%
    08:00 +12°C° 0 mm 4 mps 753 mmHg 95%
    09:00 +12°C° 0 mm 4 mps 753 mmHg 95%
    10:00 +13°C° 0 mm 5 mps 754 mmHg 93%
    11:00 +13°C° 0 mm 5 mps 754 mmHg 91%
    12:00 +14°C° 0 mm 5 mps 754 mmHg 89%
    13:00 +14°C° 0 mm 5 mps 753 mmHg 89%
    14:00 +15°C° 0 mm 5 mps 753 mmHg 90%
    15:00 +15°C° 0 mm 4 mps 753 mmHg 90%
    16:00 +14°C° 0 mm 4 mps 753 mmHg 92%
    17:00 +14°C° 0 mm 4 mps 753 mmHg 94%
    18:00 +13°C° 0 mm 4 mps 753 mmHg 96%
    19:00 +13°C° 0 mm 4 mps 753 mmHg 96%
    20:00 +12°C° 0 mm 4 mps 754 mmHg 96%
    21:00 +12°C° 0 mm 4 mps 754 mmHg 97%
    22:00 +12°C° 0 mm 4 mps 754 mmHg 96%
    23:00 +12°C° 0 mm 4 mps 753 mmHg 96%
    Show more